Flag for Sweden Weather past 2 weeks in Örebro, Sweden

Now
64 °F

Scattered clouds.


Feels Like: 64 °F
Forecast: 45 / 64 °F
Wind: 10 mph from Southwest

Location: Orebro Private

Current Time: Sep 3, 2015 at 1:03:06 PM

Latest Report: Sep 3, 2015 at 12:20 PM


Visibility: N/A

Pressure: 29.89 "Hg

Humidity: 68%

Dew point: 54 °F

Location of ÖrebroLocation

Historic Weather in Örebro — Graph

°F

Örebro temperature yesterday

Maximum temperature yesterday: 61 °F (at 4:20 PM)
Minimum temperature yesterday: 55 °F (at 12:50 AM)
Average temperature yesterday: 57 °F

Past Weeks' High & Low Weather Summary

 TemperatureHumidityPressure
High77 °F (Aug 21, 4:50 PM)100% (Aug 20, 2:20 AM)30.42 "Hg (Aug 20, 2:20 AM)
Low45 °F (Aug 20, 5:50 AM)41% (Aug 20, 5:50 PM)29.59 "Hg (Aug 27, 2:50 PM)
Average61 °F81%30.01 "Hg
* Reported Aug 19 11:20 AM — Sep 3 11:50 AM, Örebro, Weather by CustomWeather, © 2015

Note: Actual official high and low records may vary slightly from our data, if they occured in-between our weather recording intervals... More about our weather records

Advertising

Örebro weather history for previous 24 hours

 ConditionsComfort  
Time TempWeatherWind HumidityBarometerVisibility
11:50 AM
Thu, Sep 3
64 °FPassing clouds.8 mph73%29.89 "HgN/A
11:20 AM63 °FScattered clouds.7 mph73%29.89 "HgN/A
10:50 AM61 °FSunny.8 mph77%29.89 "Hg10 mi
10:20 AM61 °FSunny.7 mph83%29.89 "Hg10 mi
9:50 AM59 °FPassing clouds.8 mph88%29.89 "HgN/A
9:20 AM55 °FPassing clouds.7 mph100%29.89 "HgN/A
8:50 AM54 °FScattered clouds.6 mph100%29.86 "HgN/A
8:20 AM52 °FFog.6 mph100%29.86 "Hg2 mi
7:50 AM50 °FFog.3 mph100%29.86 "Hg0 mi
7:20 AM50 °FFog.2 mph100%29.86 "Hg0 mi
6:20 AM50 °FFog.No wind100%29.83 "Hg0 mi
5:20 AM52 °FFog.No wind100%29.83 "Hg0 mi
4:50 AM52 °FFog.2 mph100%29.83 "Hg0 mi
4:20 AM52 °FFog.2 mph100%29.83 "Hg0 mi
3:50 AM52 °FFog.2 mph100%29.83 "Hg0 mi
3:20 AM52 °FFog.2 mph94%29.83 "Hg0 mi
2:50 AM52 °FFog.No wind100%29.83 "Hg0 mi
2:20 AM52 °FFog.No wind100%29.83 "Hg0 mi
1:50 AM54 °FFog.2 mph100%29.83 "Hg0 mi
1:20 AM55 °FFog.2 mph94%29.83 "Hg1 mi
12:50 AM55 °FPassing clouds.2 mph100%29.83 "Hg4 mi
12:20 AM55 °FPassing clouds.2 mph100%29.80 "HgN/A
11:50 PM
Wed, Sep 2
55 °FPassing clouds.2 mph100%29.80 "HgN/A
11:20 PM55 °FPassing clouds.3 mph100%29.80 "HgN/A
10:50 PM55 °FLight rain. Partly cloudy.1 mph100%29.80 "Hg3 mi
10:20 PM55 °FLow clouds.3 mph100%29.80 "HgN/A
9:50 PM55 °FPassing clouds.3 mph100%29.80 "HgN/A
8:50 PM55 °FSunny.5 mph94%29.77 "Hg10 mi
8:20 PM55 °FPassing clouds.6 mph94%29.77 "HgN/A
7:50 PM57 °FPassing clouds.5 mph94%29.77 "HgN/A
7:20 PM59 °FSunny.6 mph94%29.77 "Hg10 mi
6:50 PM61 °FSunny.5 mph88%29.74 "Hg10 mi
6:20 PM61 °FSunny.6 mph88%29.74 "Hg10 mi
4:50 PM61 °FPassing clouds.5 mph88%29.74 "HgN/A
4:20 PM61 °FPartly sunny.5 mph88%29.74 "HgN/A
3:50 PM59 °FScattered showers. Partly sunny.15 mph94%29.71 "HgN/A
3:20 PM57 °FLight rain. Scattered clouds.7 mph94%29.74 "Hg6 mi
2:50 PM59 °FBroken clouds.5 mph94%29.71 "Hg2 mi
2:20 PM59 °FScattered clouds.8 mph100%29.71 "HgN/A
1:50 PM59 °FLight rain. Broken clouds.9 mph94%29.71 "Hg2 mi
1:20 PM59 °FFog.9 mph100%29.71 "Hg2 mi
Weather by CustomWeather, © 2015

See weather overviewHow to use our weather pages